PREAS SJGU-SDOW

Flight info

Callsign PREAS
Flight time 1h 16m
Altitude 4500
Route 0552S04826W 0621S04925W 0633S04943W 0630S05027W
Aircraft DA62/L-SDFGRY/C

Departure

Time 2026-04-20 14:00
Airport Araguatins Airport (SJGU)

Arrival

Time 2026-04-20 15:16
Airport Ourilândia do Norte Airport (SDOW)
Time Latitude Longitude Altitude Speed Heading
2026-04-20 13:40 -5.68402 -48.11277 404 ft 0 kts 20°
2026-04-20 13:50 -5.68404 -48.11277 404 ft 2 kts 18°
2026-04-20 13:51 -5.68418 -48.11272 401 ft 2 kts 298°
2026-04-20 13:51 -5.68420 -48.11264 404 ft 0 kts 279°
2026-04-20 13:54 -5.68425 -48.11273 401 ft 2 kts 197°
2026-04-20 13:54 -5.68492 -48.11262 402 ft 9 kts 185°
2026-04-20 13:54 -5.68533 -48.11271 402 ft 9 kts 193°
2026-04-20 13:54 -5.68558 -48.11276 402 ft 0 kts 192°
2026-04-20 13:55 -5.68560 -48.11276 402 ft 3 kts 192°
2026-04-20 13:55 -5.68622 -48.11279 402 ft 10 kts 138°
2026-04-20 13:56 -5.68656 -48.11188 404 ft 17 kts 103°
2026-04-20 13:56 -5.68681 -48.11083 406 ft 14 kts 104°
2026-04-20 13:56 -5.68700 -48.11000 408 ft 11 kts 103°
2026-04-20 13:56 -5.68718 -48.10928 410 ft 10 kts 103°
2026-04-20 13:57 -5.68729 -48.10848 411 ft 12 kts 84°
2026-04-20 13:57 -5.68738 -48.10775 411 ft 11 kts 166°
2026-04-20 13:57 -5.68747 -48.10812 411 ft 5 kts 284°
2026-04-20 13:57 -5.68746 -48.10813 411 ft 0 kts 284°
2026-04-20 13:58 -5.68732 -48.10870 411 ft 35 kts 284°
2026-04-20 13:59 -5.68628 -48.11304 399 ft 88 kts 283°
2026-04-20 13:59 -5.68479 -48.12000 435 ft 112 kts 288°
2026-04-20 13:59 -5.68223 -48.12756 677 ft 113 kts 292°
2026-04-20 13:59 -5.68069 -48.13013 869 ft 104 kts 305°
2026-04-20 14:00 -5.68068 -48.13014 865 ft 104 kts 305°
2026-04-20 14:00 -5.67713 -48.13567 1286 ft 89 kts 301°
2026-04-20 14:01 -5.67385 -48.14100 1574 ft 91 kts 301°
2026-04-20 14:01 -5.67055 -48.14640 1877 ft 91 kts 300°
2026-04-20 14:01 -5.66721 -48.15186 2171 ft 92 kts 292°
2026-04-20 14:01 -5.66872 -48.15746 2470 ft 88 kts 231°
2026-04-20 14:02 -5.67199 -48.16277 2762 ft 90 kts 234°
2026-04-20 14:02 -5.67636 -48.16710 3064 ft 89 kts 216°
2026-04-20 14:02 -5.67917 -48.16949 3236 ft 89 kts 217°
2026-04-20 14:02 -5.68052 -48.17062 3319 ft 90 kts 216°
2026-04-20 14:03 -5.68528 -48.17469 3621 ft 90 kts 216°
2026-04-20 14:03 -5.68976 -48.17917 3917 ft 93 kts 234°
2026-04-20 14:03 -5.69309 -48.18492 4210 ft 94 kts 235°
2026-04-20 14:03 -5.69648 -48.19048 4499 ft 98 kts 234°
2026-04-20 14:04 -5.70057 -48.19720 4519 ft 127 kts 235°
2026-04-20 14:04 -5.70572 -48.20547 4520 ft 151 kts 235°
2026-04-20 14:04 -5.71173 -48.21484 4516 ft 167 kts 235°
2026-04-20 14:04 -5.71820 -48.22488 4515 ft 176 kts 235°
2026-04-20 14:05 -5.72494 -48.23537 4508 ft 181 kts 235°
2026-04-20 14:05 -5.73189 -48.24605 4516 ft 185 kts 235°
2026-04-20 14:05 -5.73892 -48.25691 4514 ft 186 kts 235°
2026-04-20 14:05 -5.74572 -48.26730 4511 ft 174 kts 234°
2026-04-20 14:06 -5.75236 -48.27755 4513 ft 176 kts 235°
2026-04-20 14:06 -5.75901 -48.28783 4511 ft 175 kts 234°
2026-04-20 14:06 -5.76559 -48.29808 4510 ft 174 kts 235°
2026-04-20 14:06 -5.77216 -48.30825 4511 ft 173 kts 235°
2026-04-20 14:07 -5.77877 -48.31837 4507 ft 173 kts 234°
2026-04-20 14:07 -5.78533 -48.32855 4509 ft 174 kts 235°
2026-04-20 14:07 -5.79191 -48.33871 4508 ft 174 kts 235°
2026-04-20 14:07 -5.79855 -48.34884 4509 ft 173 kts 235°
2026-04-20 14:08 -5.80515 -48.35896 4507 ft 173 kts 235°
2026-04-20 14:08 -5.81176 -48.36911 4506 ft 173 kts 234°
2026-04-20 14:08 -5.81833 -48.37928 4505 ft 174 kts 235°
2026-04-20 14:08 -5.82493 -48.38945 4497 ft 174 kts 235°
2026-04-20 14:09 -5.83159 -48.39965 4508 ft 175 kts 235°
2026-04-20 14:09 -5.83818 -48.40989 4510 ft 174 kts 235°
2026-04-20 14:09 -5.84480 -48.42011 4510 ft 174 kts 235°
2026-04-20 14:09 -5.85135 -48.43035 4510 ft 174 kts 236°
2026-04-20 14:10 -5.85727 -48.44100 4509 ft 176 kts 243°
2026-04-20 14:10 -5.86237 -48.45216 4508 ft 176 kts 244°
2026-04-20 14:10 -5.86746 -48.46333 4507 ft 176 kts 244°
2026-04-20 14:10 -5.87256 -48.47452 4504 ft 176 kts 244°
2026-04-20 14:11 -5.87765 -48.48566 4506 ft 175 kts 244°
2026-04-20 14:11 -5.88273 -48.49674 4508 ft 174 kts 244°
2026-04-20 14:11 -5.88775 -48.50778 4510 ft 174 kts 244°
2026-04-20 14:11 -5.89279 -48.51884 4509 ft 174 kts 244°
2026-04-20 14:12 -5.89784 -48.52991 4510 ft 175 kts 244°
2026-04-20 14:12 -5.90292 -48.54102 4504 ft 175 kts 244°
2026-04-20 14:12 -5.90790 -48.55203 4506 ft 175 kts 244°
2026-04-20 14:12 -5.91289 -48.56315 4502 ft 175 kts 244°
2026-04-20 14:13 -5.91790 -48.57422 4509 ft 174 kts 244°
2026-04-20 14:13 -5.92294 -48.58528 4503 ft 174 kts 244°
2026-04-20 14:13 -5.92799 -48.59632 4505 ft 174 kts 244°
2026-04-20 14:13 -5.93306 -48.60743 4500 ft 175 kts 244°
2026-04-20 14:14 -5.93814 -48.61851 4510 ft 174 kts 244°
2026-04-20 14:14 -5.94320 -48.62957 4507 ft 174 kts 244°
2026-04-20 14:14 -5.94823 -48.64060 4508 ft 174 kts 244°
2026-04-20 14:14 -5.95325 -48.65163 4507 ft 174 kts 244°
2026-04-20 14:15 -5.95827 -48.66267 4506 ft 174 kts 244°
2026-04-20 14:15 -5.96331 -48.67367 4505 ft 173 kts 244°
2026-04-20 14:15 -5.96838 -48.68463 4509 ft 173 kts 244°
2026-04-20 14:15 -5.97342 -48.69559 4501 ft 173 kts 244°
2026-04-20 14:16 -5.97844 -48.70655 4502 ft 172 kts 244°
2026-04-20 14:16 -5.98342 -48.71750 4497 ft 172 kts 244°
2026-04-20 14:16 -5.98839 -48.72841 4502 ft 171 kts 244°
2026-04-20 14:16 -5.99338 -48.73927 4500 ft 171 kts 244°
2026-04-20 14:17 -5.99838 -48.75016 4505 ft 172 kts 244°
2026-04-20 14:17 -6.00340 -48.76109 4506 ft 172 kts 244°
2026-04-20 14:17 -6.00843 -48.77203 4497 ft 173 kts 244°
2026-04-20 14:17 -6.01346 -48.78297 4503 ft 172 kts 244°
2026-04-20 14:18 -6.01847 -48.79389 4508 ft 172 kts 244°
2026-04-20 14:18 -6.02347 -48.80483 4506 ft 173 kts 244°
2026-04-20 14:18 -6.02850 -48.81580 4503 ft 173 kts 244°
2026-04-20 14:18 -6.03354 -48.82676 4504 ft 173 kts 244°
2026-04-20 14:19 -6.03853 -48.83756 4504 ft 173 kts 244°
2026-04-20 14:19 -6.04360 -48.84865 4500 ft 172 kts 244°
2026-04-20 14:19 -6.04858 -48.85956 4503 ft 172 kts 244°
2026-04-20 14:19 -6.05351 -48.87036 4503 ft 173 kts 244°
2026-04-20 14:20 -6.05851 -48.88135 4506 ft 173 kts 244°
2026-04-20 14:20 -6.06356 -48.89231 4503 ft 173 kts 244°
2026-04-20 14:20 -6.06860 -48.90328 4505 ft 173 kts 244°
2026-04-20 14:20 -6.07366 -48.91425 4506 ft 173 kts 244°
2026-04-20 14:21 -6.07872 -48.92519 4505 ft 173 kts 244°
2026-04-20 14:21 -6.08378 -48.93611 4496 ft 172 kts 244°
2026-04-20 14:21 -6.08881 -48.94701 4497 ft 172 kts 244°
2026-04-20 14:21 -6.09383 -48.95792 4499 ft 172 kts 244°
2026-04-20 14:22 -6.09885 -48.96884 4508 ft 172 kts 244°
2026-04-20 14:22 -6.10389 -48.97975 4509 ft 172 kts 244°
2026-04-20 14:22 -6.10893 -48.99070 4508 ft 173 kts 244°
2026-04-20 14:22 -6.11393 -49.00170 4507 ft 173 kts 244°
2026-04-20 14:23 -6.11893 -49.01272 4502 ft 173 kts 244°
2026-04-20 14:23 -6.12394 -49.02373 4496 ft 173 kts 244°
2026-04-20 14:23 -6.12896 -49.03470 4502 ft 173 kts 244°
2026-04-20 14:23 -6.13401 -49.04565 4496 ft 173 kts 244°
2026-04-20 14:24 -6.13905 -49.05662 4504 ft 173 kts 244°
2026-04-20 14:24 -6.14414 -49.06764 4501 ft 175 kts 244°
2026-04-20 14:24 -6.14924 -49.07880 4501 ft 176 kts 244°
2026-04-20 14:24 -6.15439 -49.09002 4509 ft 177 kts 244°
2026-04-20 14:25 -6.15957 -49.10129 4506 ft 178 kts 244°
2026-04-20 14:25 -6.16475 -49.11263 4502 ft 179 kts 244°
2026-04-20 14:25 -6.16995 -49.12396 4507 ft 179 kts 244°
2026-04-20 14:25 -6.17341 -49.13149 4504 ft 178 kts 244°
2026-04-20 14:26 -6.18027 -49.14647 4499 ft 178 kts 244°
2026-04-20 14:26 -6.18544 -49.15778 4502 ft 178 kts 244°
2026-04-20 14:26 -6.19058 -49.16907 4506 ft 177 kts 244°
2026-04-20 14:26 -6.19573 -49.18027 4502 ft 176 kts 244°
2026-04-20 14:27 -6.20085 -49.19139 4498 ft 175 kts 244°
2026-04-20 14:27 -6.20593 -49.20244 4497 ft 174 kts 244°
2026-04-20 14:27 -6.21101 -49.21348 4498 ft 173 kts 244°
2026-04-20 14:27 -6.21608 -49.22450 4506 ft 174 kts 244°
2026-04-20 14:28 -6.22116 -49.23554 4504 ft 174 kts 244°
2026-04-20 14:28 -6.22623 -49.24661 4503 ft 174 kts 244°
2026-04-20 14:28 -6.23131 -49.25769 4503 ft 175 kts 244°
2026-04-20 14:28 -6.23641 -49.26875 4501 ft 174 kts 244°
2026-04-20 14:29 -6.24151 -49.27977 4500 ft 174 kts 244°
2026-04-20 14:29 -6.24658 -49.29080 4504 ft 174 kts 244°
2026-04-20 14:29 -6.25164 -49.30189 4504 ft 175 kts 244°
2026-04-20 14:29 -6.25673 -49.31298 4497 ft 175 kts 244°
2026-04-20 14:30 -6.26185 -49.32403 4497 ft 174 kts 244°
2026-04-20 14:30 -6.26697 -49.33506 4503 ft 174 kts 244°
2026-04-20 14:30 -6.27209 -49.34609 4498 ft 174 kts 244°
2026-04-20 14:30 -6.27718 -49.35711 4501 ft 174 kts 244°
2026-04-20 14:31 -6.28227 -49.36810 4502 ft 173 kts 244°
2026-04-20 14:31 -6.28735 -49.37908 4498 ft 173 kts 244°
2026-04-20 14:31 -6.29243 -49.39006 4501 ft 173 kts 244°
2026-04-20 14:31 -6.29753 -49.40105 4504 ft 174 kts 244°
2026-04-20 14:32 -6.30263 -49.41207 4496 ft 174 kts 244°
2026-04-20 14:32 -6.30773 -49.42308 4501 ft 173 kts 244°
2026-04-20 14:32 -6.31281 -49.43406 4501 ft 173 kts 244°
2026-04-20 14:32 -6.31789 -49.44505 4500 ft 173 kts 244°
2026-04-20 14:33 -6.32394 -49.45552 4507 ft 173 kts 236°
2026-04-20 14:33 -6.33036 -49.46558 4507 ft 173 kts 236°
2026-04-20 14:33 -6.33690 -49.47577 4506 ft 174 kts 236°
2026-04-20 14:33 -6.34345 -49.48596 4497 ft 173 kts 236°
2026-04-20 14:34 -6.34998 -49.49612 4506 ft 173 kts 236°
2026-04-20 14:34 -6.35652 -49.50628 4502 ft 173 kts 236°
2026-04-20 14:34 -6.36306 -49.51645 4507 ft 173 kts 236°
2026-04-20 14:34 -6.36961 -49.52665 4500 ft 174 kts 236°
2026-04-20 14:35 -6.37617 -49.53684 4502 ft 174 kts 236°
2026-04-20 14:35 -6.38275 -49.54701 4492 ft 173 kts 236°
2026-04-20 14:35 -6.38931 -49.55715 4489 ft 173 kts 236°
2026-04-20 14:35 -6.39585 -49.56727 4494 ft 173 kts 236°
2026-04-20 14:36 -6.40239 -49.57740 4501 ft 173 kts 236°
2026-04-20 14:36 -6.40893 -49.58753 4502 ft 173 kts 236°
2026-04-20 14:36 -6.41552 -49.59770 4500 ft 174 kts 236°
2026-04-20 14:36 -6.42210 -49.60785 4500 ft 173 kts 236°
2026-04-20 14:37 -6.42867 -49.61800 4497 ft 173 kts 236°
2026-04-20 14:37 -6.43524 -49.62814 4505 ft 173 kts 236°
2026-04-20 14:37 -6.44179 -49.63827 4504 ft 173 kts 236°
2026-04-20 14:37 -6.44834 -49.64841 4501 ft 173 kts 236°
2026-04-20 14:38 -6.45489 -49.65856 4502 ft 173 kts 236°
2026-04-20 14:38 -6.46147 -49.66874 4505 ft 174 kts 236°
2026-04-20 14:38 -6.46808 -49.67894 4504 ft 174 kts 236°
2026-04-20 14:38 -6.47481 -49.68902 4502 ft 173 kts 230°
2026-04-20 14:39 -6.48397 -49.69683 4501 ft 173 kts 216°
2026-04-20 14:39 -6.49364 -49.70396 4496 ft 172 kts 215°
2026-04-20 14:39 -6.50334 -49.71109 4503 ft 173 kts 215°
2026-04-20 14:39 -6.51293 -49.71815 4494 ft 173 kts 215°
2026-04-20 14:40 -6.52218 -49.72579 4493 ft 173 kts 231°
2026-04-20 14:40 -6.52794 -49.73643 4497 ft 172 kts 244°
2026-04-20 14:40 -6.53230 -49.74761 4493 ft 173 kts 262°
2026-04-20 14:40 -6.53192 -49.75971 4490 ft 173 kts 275°
2026-04-20 14:41 -6.53085 -49.77179 4494 ft 173 kts 275°
2026-04-20 14:41 -6.53012 -49.77978 4494 ft 173 kts 275°
2026-04-20 14:41 -6.52903 -49.79186 4494 ft 173 kts 275°
2026-04-20 14:41 -6.52758 -49.80801 4492 ft 173 kts 275°
2026-04-20 14:42 -6.52685 -49.81617 4494 ft 173 kts 275°
2026-04-20 14:42 -6.52578 -49.82808 4493 ft 173 kts 275°
2026-04-20 14:42 -6.52471 -49.84012 4489 ft 173 kts 275°
2026-04-20 14:42 -6.52363 -49.85220 4494 ft 173 kts 275°
2026-04-20 14:43 -6.52256 -49.86426 4485 ft 173 kts 275°
2026-04-20 14:43 -6.52147 -49.87634 4494 ft 173 kts 275°
2026-04-20 14:43 -6.52037 -49.88842 4494 ft 174 kts 275°
2026-04-20 14:43 -6.51928 -49.90052 4494 ft 174 kts 275°
2026-04-20 14:44 -6.51818 -49.91258 4497 ft 174 kts 275°
2026-04-20 14:44 -6.51709 -49.92470 4497 ft 174 kts 275°
2026-04-20 14:44 -6.51601 -49.93680 4497 ft 174 kts 275°
2026-04-20 14:44 -6.51492 -49.94891 4491 ft 174 kts 275°
2026-04-20 14:45 -6.51384 -49.96100 4497 ft 174 kts 275°
2026-04-20 14:45 -6.51275 -49.97309 4496 ft 174 kts 275°
2026-04-20 14:45 -6.51172 -49.98520 4501 ft 174 kts 275°
2026-04-20 14:45 -6.51067 -49.99731 4500 ft 174 kts 275°
2026-04-20 14:46 -6.50962 -50.00946 4498 ft 174 kts 275°
2026-04-20 14:46 -6.50857 -50.02160 4496 ft 174 kts 275°
2026-04-20 14:46 -6.50751 -50.03375 4499 ft 175 kts 275°
2026-04-20 14:46 -6.50645 -50.04594 4497 ft 175 kts 275°
2026-04-20 14:47 -6.50540 -50.05811 4495 ft 174 kts 275°
2026-04-20 14:47 -6.50434 -50.07024 4497 ft 174 kts 275°
2026-04-20 14:47 -6.50326 -50.08236 4494 ft 174 kts 275°
2026-04-20 14:48 -6.50112 -50.10664 4498 ft 175 kts 275°
2026-04-20 14:48 -6.50005 -50.11881 4498 ft 175 kts 275°
2026-04-20 14:48 -6.49899 -50.13084 4499 ft 175 kts 275°
2026-04-20 14:48 -6.49793 -50.14300 4494 ft 174 kts 275°
2026-04-20 14:49 -6.49685 -50.15512 4503 ft 174 kts 275°
2026-04-20 14:49 -6.49578 -50.16721 4503 ft 174 kts 275°
2026-04-20 14:49 -6.49473 -50.17930 4503 ft 174 kts 275°
2026-04-20 14:49 -6.49366 -50.19138 4503 ft 173 kts 275°
2026-04-20 14:50 -6.49260 -50.20347 4491 ft 174 kts 275°
2026-04-20 14:50 -6.49156 -50.21556 4498 ft 174 kts 275°
2026-04-20 14:50 -6.49052 -50.22767 4498 ft 174 kts 275°
2026-04-20 14:50 -6.48948 -50.23981 4496 ft 174 kts 275°
2026-04-20 14:51 -6.48844 -50.25192 4493 ft 174 kts 275°
2026-04-20 14:51 -6.48740 -50.26406 4495 ft 174 kts 275°
2026-04-20 14:51 -6.48638 -50.27619 4495 ft 174 kts 275°
2026-04-20 14:51 -6.48536 -50.28830 4495 ft 174 kts 275°
2026-04-20 14:52 -6.48434 -50.30040 4496 ft 173 kts 275°
2026-04-20 14:52 -6.48332 -50.31246 4496 ft 173 kts 275°
2026-04-20 14:52 -6.48228 -50.32456 4497 ft 174 kts 275°
2026-04-20 14:52 -6.48123 -50.33668 4497 ft 174 kts 275°
2026-04-20 14:53 -6.48020 -50.34886 4497 ft 175 kts 275°
2026-04-20 14:53 -6.47919 -50.36103 4496 ft 175 kts 275°
2026-04-20 14:53 -6.47816 -50.37319 4497 ft 175 kts 275°
2026-04-20 14:53 -6.47715 -50.38534 4495 ft 174 kts 275°
2026-04-20 14:54 -6.47614 -50.39747 4501 ft 174 kts 275°
2026-04-20 14:54 -6.47512 -50.40958 4500 ft 174 kts 275°
2026-04-20 14:54 -6.47409 -50.42167 4495 ft 174 kts 275°
2026-04-20 14:54 -6.47307 -50.43378 4495 ft 174 kts 275°
2026-04-20 14:55 -6.47205 -50.44590 4499 ft 174 kts 275°
2026-04-20 14:55 -6.47259 -50.45795 4498 ft 174 kts 252°
2026-04-20 14:55 -6.47716 -50.46923 4494 ft 174 kts 246°
2026-04-20 14:55 -6.48201 -50.48039 4495 ft 174 kts 246°
2026-04-20 14:56 -6.48685 -50.49150 4499 ft 174 kts 246°
2026-04-20 14:56 -6.49170 -50.50263 4496 ft 174 kts 246°
2026-04-20 14:56 -6.49654 -50.51376 4496 ft 174 kts 246°
2026-04-20 14:56 -6.50139 -50.52492 4502 ft 174 kts 246°
2026-04-20 14:57 -6.50623 -50.53609 4496 ft 174 kts 246°
2026-04-20 14:57 -6.51107 -50.54725 4498 ft 174 kts 246°
2026-04-20 14:57 -6.51592 -50.55843 4497 ft 174 kts 246°
2026-04-20 14:57 -6.52076 -50.56960 4495 ft 174 kts 246°
2026-04-20 14:58 -6.52554 -50.58062 4495 ft 174 kts 246°
2026-04-20 14:58 -6.53038 -50.59174 4500 ft 174 kts 246°
2026-04-20 14:58 -6.53524 -50.60294 4494 ft 174 kts 246°
2026-04-20 14:58 -6.54008 -50.61410 4493 ft 174 kts 246°
2026-04-20 14:59 -6.54496 -50.62536 4418 ft 179 kts 246°
2026-04-20 14:59 -6.54997 -50.63688 4369 ft 179 kts 246°
2026-04-20 14:59 -6.55490 -50.64825 4369 ft 176 kts 246°
2026-04-20 14:59 -6.55978 -50.65946 4367 ft 174 kts 246°
2026-04-20 15:00 -6.56464 -50.67060 4365 ft 173 kts 246°
2026-04-20 15:00 -6.56946 -50.68166 4366 ft 173 kts 246°
2026-04-20 15:00 -6.57429 -50.69271 4366 ft 172 kts 246°
2026-04-20 15:00 -6.57911 -50.70372 4366 ft 172 kts 246°
2026-04-20 15:01 -6.58393 -50.71471 4366 ft 171 kts 246°
2026-04-20 15:01 -6.58872 -50.72568 4365 ft 171 kts 246°
2026-04-20 15:01 -6.59350 -50.73663 4365 ft 171 kts 246°
2026-04-20 15:01 -6.59829 -50.74761 4367 ft 172 kts 246°
2026-04-20 15:02 -6.60309 -50.75860 4371 ft 172 kts 246°
2026-04-20 15:02 -6.60789 -50.76959 4369 ft 171 kts 246°
2026-04-20 15:02 -6.61267 -50.78056 4367 ft 171 kts 246°
2026-04-20 15:02 -6.61746 -50.79153 4368 ft 171 kts 246°
2026-04-20 15:03 -6.62224 -50.80249 4366 ft 171 kts 246°
2026-04-20 15:03 -6.62703 -50.81345 4366 ft 171 kts 246°
2026-04-20 15:03 -6.63181 -50.82441 4365 ft 171 kts 246°
2026-04-20 15:03 -6.63659 -50.83537 4364 ft 171 kts 246°
2026-04-20 15:04 -6.64137 -50.84632 4370 ft 171 kts 246°
2026-04-20 15:04 -6.64615 -50.85728 4369 ft 171 kts 246°
2026-04-20 15:04 -6.65094 -50.86824 4369 ft 171 kts 246°
2026-04-20 15:04 -6.65572 -50.87920 4369 ft 171 kts 246°
2026-04-20 15:05 -6.66053 -50.89016 4374 ft 172 kts 246°
2026-04-20 15:05 -6.66537 -50.90116 4370 ft 172 kts 246°
2026-04-20 15:05 -6.67021 -50.91216 4371 ft 172 kts 246°
2026-04-20 15:05 -6.67506 -50.92317 4368 ft 172 kts 246°
2026-04-20 15:06 -6.68079 -50.93369 4372 ft 173 kts 236°
2026-04-20 15:06 -6.68769 -50.94358 4364 ft 172 kts 234°
2026-04-20 15:06 -6.69467 -50.95339 4364 ft 172 kts 234°
2026-04-20 15:06 -6.70164 -50.96319 4367 ft 173 kts 234°
2026-04-20 15:07 -6.70811 -50.97231 4212 ft 136 kts 234°
2026-04-20 15:07 -6.71362 -50.98000 4058 ft 131 kts 234°
2026-04-20 15:07 -6.71878 -50.98724 3859 ft 124 kts 235°
2026-04-20 15:07 -6.72062 -50.99519 3659 ft 118 kts 281°
2026-04-20 15:08 -6.71930 -51.00317 3465 ft 114 kts 280°
2026-04-20 15:08 -6.71798 -51.01106 3278 ft 115 kts 280°
2026-04-20 15:08 -6.71627 -51.01886 3090 ft 117 kts 293°
2026-04-20 15:08 -6.71276 -51.02632 2896 ft 119 kts 296°
2026-04-20 15:09 -6.70919 -51.03382 2703 ft 119 kts 296°
2026-04-20 15:09 -6.70557 -51.04129 2511 ft 119 kts 296°
2026-04-20 15:09 -6.70193 -51.04874 2317 ft 118 kts 296°
2026-04-20 15:09 -6.69830 -51.05618 2164 ft 116 kts 296°
2026-04-20 15:10 -6.69501 -51.06297 2156 ft 102 kts 296°
2026-04-20 15:10 -6.69194 -51.06935 2155 ft 101 kts 296°
2026-04-20 15:10 -6.68889 -51.07564 2155 ft 99 kts 296°
2026-04-20 15:10 -6.68583 -51.08188 2155 ft 100 kts 296°
2026-04-20 15:11 -6.68273 -51.08811 2160 ft 100 kts 297°
2026-04-20 15:11 -6.67960 -51.09436 2159 ft 100 kts 297°
2026-04-20 15:11 -6.67666 -51.10068 2152 ft 100 kts 283°
2026-04-20 15:11 -6.67947 -51.10656 2146 ft 99 kts 208°
2026-04-20 15:12 -6.68555 -51.10964 2154 ft 98 kts 207°
2026-04-20 15:12 -6.69153 -51.11278 2154 ft 97 kts 206°
2026-04-20 15:12 -6.69753 -51.11593 2155 ft 97 kts 206°
2026-04-20 15:12 -6.70356 -51.11911 2155 ft 98 kts 207°
2026-04-20 15:13 -6.70957 -51.12232 2153 ft 98 kts 207°
2026-04-20 15:13 -6.71568 -51.12533 2142 ft 97 kts 192°
2026-04-20 15:13 -6.72109 -51.12248 2154 ft 93 kts 119°
2026-04-20 15:13 -6.72460 -51.11699 2153 ft 93 kts 123°
2026-04-20 15:14 -6.72763 -51.11104 2078 ft 100 kts 113°
2026-04-20 15:14 -6.73040 -51.10455 2021 ft 102 kts 114°
2026-04-20 15:14 -6.73354 -51.09802 1886 ft 103 kts 118°
2026-04-20 15:14 -6.73703 -51.09168 1744 ft 104 kts 121°
2026-04-20 15:15 -6.74086 -51.08560 1633 ft 102 kts 122°
2026-04-20 15:15 -6.74463 -51.07962 1535 ft 100 kts 121°
2026-04-20 15:15 -6.74836 -51.07359 1416 ft 103 kts 121°
2026-04-20 15:15 -6.75219 -51.06759 1276 ft 104 kts 122°
2026-04-20 15:16 -6.75604 -51.06136 1115 ft 106 kts 121°
2026-04-20 15:16 -6.75986 -51.05505 943 ft 107 kts 121°
2026-04-20 15:16 -6.76305 -51.04986 840 ft 56 kts 121°
2026-04-20 15:16 -6.76394 -51.04843 837 ft 14 kts 120°
2026-04-20 15:17 -6.76444 -51.04760 835 ft 14 kts 122°
2026-04-20 15:17 -6.76505 -51.04661 830 ft 20 kts 122°
2026-04-20 15:17 -6.76537 -51.04566 825 ft 10 kts 98°
2026-04-20 15:17 -6.76563 -51.04570 824 ft 5 kts 300°
2026-04-20 15:18 -6.76484 -51.04694 832 ft 26 kts 299°
2026-04-20 15:18 -6.76364 -51.04890 833 ft 46 kts 301°
2026-04-20 15:18 -6.76272 -51.05035 847 ft 13 kts 319°
2026-04-20 15:18 -6.76229 -51.05035 846 ft 0 kts 39°
2026-04-20 15:19 -6.76207 -51.05018 849 ft 10 kts 37°
2026-04-20 15:19 -6.76173 -51.04976 847 ft 5 kts 109°
2026-04-20 15:19 -6.76199 -51.04939 844 ft 10 kts 100°
2026-04-20 15:20 -6.76224 -51.04901 843 ft 4 kts 180°
2026-04-20 15:20 -6.76230 -51.04902 843 ft 0 kts 206°